FW8985 Weather Reports


time (UTC)temp
F
wind
direction
speed
knots
gust
knots
rain 1hr
in
rain 24hr
in
rain mn
in
humidity
%
barometer
mb
20260906032033 73 0 0.0 0.0 0.00 0.69 0.69 96 1013.9
20260906031620 73 0 0.0 0.0 0.00 0.69 0.69 96 1013.8
20260906031035 73 0 0.0 0.0 0.00 0.69 0.69 96 1013.8
20260906030536 73 0 0.0 0.0 0.00 0.69 0.69 96 1013.7
20260906030054 73 0 0.0 0.0 0.00 0.69 0.69 95 1013.7
20260906025535 73 0 0.0 0.0 0.00 0.69 0.69 95 1013.8
20260906025035 73 0 0.0 2.6 0.00 0.69 0.69 96 1013.8
20260906024555 73 0 0.0 2.6 0.00 0.69 0.69 96 1013.9
20260906024035 73 0 0.0 1.7 0.00 0.69 0.69 96 1013.8
20260906023535 74 0 0.0 0.9 0.00 0.69 0.69 96 1013.6
20260906023110 74 278 0.0 0.9 0.00 0.69 0.69 96 1013.5
20260906022537 74 0 0.0 1.7 0.00 0.69 0.69 96 1013.4
20260906022035 74 0 0.0 1.7 0.00 0.69 0.69 96 1013.3
20260906021555 74 0 0.0 1.7 0.00 0.69 0.69 96 1013.2
20260906021034 74 278 0.0 1.7 0.00 0.69 0.69 96 1013.2
20260906020536 74 278 0.9 2.6 0.00 0.69 0.69 96 1013.2
20260906020058 74 277 0.9 2.6 0.00 0.69 0.69 96 1013.2
20260906015535 74 308 0.0 1.7 0.00 0.69 0.69 96 1013.1
20260906015035 74 0 0.0 1.7 0.00 0.69 0.69 95 1013.2
20260906014559 74 298 0.0 1.7 0.00 0.69 0.69 95 1013.1
20260906014035 74 286 0.0 1.7 0.00 0.69 0.69 95 1013.2
20260906013535 74 0 0.0 1.7 0.00 0.69 0.69 95 1013.3
20260906013057 75 0 0.0 0.9 0.00 0.69 0.69 95 1013.2
20260906012534 75 0 0.0 0.9 0.00 0.69 0.69 95 1013.1
20260906012034 75 0 0.0 0.9 0.00 0.69 0.69 95 1013.2
20260906011605 75 0 0.0 0.9 0.00 0.69 0.69 95 1013.1
20260906011036 75 0 0.0 0.9 0.00 0.69 0.69 95 1013.0
20260906010533 75 0 0.0 0.0 0.00 0.69 0.69 95 1013.0
20260906010055 75 0 0.0 0.0 0.00 0.69 0.69 95 1013.0
20260906005534 75 0 0.0 0.0 0.00 0.69 0.69 95 1013.0
20260906005034 76 0 0.0 0.9 0.00 0.69 0.69 95 1012.8
20260906004559 76 0 0.0 0.9 0.00 0.69 0.69 95 1012.7
20260906004033 76 249 0.0 0.9 0.00 0.69 0.69 94 1012.7
20260906003533 76 104 0.0 0.9 0.00 0.69 0.69 94 1012.6
20260906003056 76 104 0.0 0.9 0.00 0.69 0.69 94 1012.8
20260906002535 76 0 0.0 0.9 0.00 0.69 0.69 94 1012.7
20260906002031 76 0 0.0 0.9 0.00 0.69 0.69 94 1012.5
20260906001554 77 0 0.0 1.7 0.00 0.69 0.69 93 1012.5
20260906001035 77 0 0.0 1.7 0.00 0.69 0.69 93 1012.5
20260906000535 77 0 0.0 0.0 0.00 0.69 0.69 93 1012.4
20260906000059 77 0 0.0 0.0 0.00 0.69 0.69 93 1012.5
20260905235539 77 0 0.0 0.9 0.00 0.69 0.69 93 1012.3
20260905235035 78 0 0.0 0.9 0.00 0.69 0.69 92 1012.3
20260905234548 78 0 0.0 0.9 0.00 0.69 0.69 92 1012.2
20260905234035 78 0 0.0 0.9 0.00 0.69 0.69 92 1012.1
20260905233534 78 0 0.0 1.7 0.00 0.69 0.69 91 1012.0
20260905233103 78 0 0.0 2.6 0.00 0.69 0.69 91 1012.0
20260905232533 78 0 0.0 2.6 0.00 0.69 0.69 91 1012.0
20260905232034 79 0 0.0 1.7 0.00 0.69 0.69 91 1011.9
20260905231603 79 0 0.0 2.6 0.00 0.69 0.69 90 1011.8
20260905231035 79 209 0.0 2.6 0.00 0.69 0.69 89 1011.8
20260905230535 79 214 0.0 2.6 0.00 0.69 0.69 89 1011.8
20260905225535 79 51 0.9 3.5 0.00 0.69 0.69 87 1011.7
20260905225032 79 0 0.0 1.7 0.00 0.69 0.69 86 1011.6
20260905224555 79 0 0.0 1.7 0.00 0.69 0.69 86 1011.6
20260905224039 79 0 0.0 1.7 0.00 0.69 0.69 86 1011.6
20260905223534 79 0 0.0 1.7 0.00 0.69 0.69 86 1011.5
20260905223056 79 0 0.0 1.7 0.00 0.69 0.69 87 1011.6
20260905222535 80 74 0.0 3.5 0.00 0.69 0.69 86 1011.7
20260905222035 80 0 0.0 5.2 0.00 0.69 0.69 86 1011.7
20260905221621 79 191 1.7 5.2 0.00 0.69 0.69 85 1011.8
20260905221037 79 281 0.9 4.3 0.00 0.69 0.69 88 1011.8
20260905220535 78 269 0.0 2.6 0.00 0.69 0.69 89 1011.8
20260905220101 78 0 0.0 3.5 0.00 0.69 0.69 88 1011.9
20260905215535 78 0 0.0 4.3 0.00 0.69 0.69 89 1011.9
20260905215035 77 183 0.9 4.3 0.00 0.69 0.69 90 1012.0
20260905214602 77 251 0.0 2.6 0.00 0.69 0.69 91 1011.8
20260905214035 76 0 0.0 0.9 0.00 0.69 0.69 92 1011.8
20260905213536 76 0 0.0 0.9 0.00 0.69 0.69 92 1012.1
20260905213054 76 0 0.0 1.7 0.00 0.69 0.69 93 1012.3
20260905212535 76 0 0.0 1.7 0.00 0.69 0.69 94 1012.5
20260905212035 76 260 0.0 1.7 0.00 0.69 0.69 95 1012.5
20260905211558 76 0 0.0 1.7 0.00 0.69 0.69 94 1012.7
20260905211035 76 0 0.0 2.6 0.00 0.69 0.69 95 1012.6
20260905210536 76 0 0.0 2.6 0.00 0.69 0.69 96 1012.6
20260905210107 75 113 0.0 1.7 0.00 0.69 0.69 96 1012.7
20260905205536 75 0 0.0 1.7 0.00 0.69 0.69 96 1012.8
20260905205034 75 113 0.0 1.7 0.00 0.69 0.69 95 1012.6
20260905204556 74 165 0.0 1.7 0.00 0.69 0.69 96 1012.8
20260905204034 74 0 0.0 1.7 0.00 0.69 0.69 96 1012.7
20260905203531 74 0 0.0 1.7 0.00 0.69 0.69 95 1012.8
20260905203051 74 0 0.0 1.7 0.00 0.69 0.69 95 1013.1
20260905202535 73 0 0.0 1.7 0.00 0.69 0.69 96 1013.2
20260905202035 73 0 0.0 0.9 0.00 0.69 0.69 96 1013.3
20260905201557 73 0 0.0 1.7 0.00 0.69 0.69 96 1013.2
20260905201035 73 0 0.0 1.7 0.00 0.69 0.69 96 1013.2
20260905200537 73 69 0.0 2.6 0.00 0.69 0.69 96 1013.3
20260905200127 72 0 0.9 2.6 0.00 0.69 0.69 96 1013.3
20260905195535 72 119 0.9 2.6 0.00 0.69 0.69 96 1013.4
20260905195034 72 203 0.0 2.6 0.00 0.69 0.69 96 1013.4
20260905194552 72 334 0.0 3.5 0.00 0.69 0.69 96 1013.3
20260905194035 72 0 0.9 3.5 0.03 0.69 0.69 96 1013.4
20260905193535 71 0 0.0 1.7 0.05 0.69 0.69 96 1013.2
20260905193058 71 289 0.0 1.7 0.07 0.69 0.69 96 1013.2
20260905192535 71 0 0.0 5.2 0.15 0.69 0.69 96 1013.3
20260905192034 71 0 0.0 5.2 0.39 0.69 0.69 96 1013.4
20260905191558 70 290 0.0 3.5 0.49 0.69 0.69 95 1013.6
20260905191035 70 279 0.9 3.5 0.52 0.69 0.69 96 1013.8
20260905190534 70 0 0.0 7.8 0.56 0.69 0.69 95 1013.8
20260905190100 70 311 1.7 7.8 0.64 0.69 0.69 95 1013.8
20260905185538 70 282 1.7 4.3 0.69 0.69 0.69 95 1014.2
20260905185034 69 277 0.0 2.6 0.69 0.69 0.69 94 1014.3
20260905184600 69 0 0.9 7.8 0.68 0.68 0.68 94 1014.3
20260905184037 69 272 1.7 8.7 0.66 0.66 0.66 94 1014.4
20260905183533 70 258 2.6 8.7 0.64 0.64 0.64 93 1015.1
20260905183059 70 232 3.5 10.4 0.62 0.62 0.62 93 1015.7
20260905182535 71 183 2.6 10.4 0.54 0.54 0.54 91 1016.8
20260905182037 73 64 4.3 10.4 0.26 0.26 0.26 87 1016.4
20260905181557 76 285 1.7 5.2 0.20 0.20 0.20 84 1016.1
20260905181033 78 271 1.7 5.2 0.15 0.15 0.15 84 1014.5
20260905180531 82 304 2.6 8.7 0.12 0.12 0.12 80 1013.4
20260905180112 86 213 2.6 8.7 0.05 0.05 0.05 69 1013.3
20260905175533 89 234 0.9 2.6 0.00 0.00 0.00 70 1013.7
20260905175033 90 229 0.0 1.7 0.00 0.00 0.00 68 1013.5
20260905174550 91 122 0.0 1.7 0.00 0.00 0.00 67 1013.4
20260905174036 91 0 0.0 5.2 0.00 0.00 0.00 65 1013.7
20260905173533 92 134 1.7 5.2 0.00 0.00 0.00 64 1013.5
20260905173114 92 132 0.0 5.2 0.00 0.00 0.00 63 1013.8
20260905172534 92 113 1.7 5.2 0.00 0.00 0.00 64 1013.9
20260905172033 92 53 1.7 4.3 0.00 0.00 0.00 67 1014.0
20260905171558 91 155 0.9 5.2 0.00 0.00 0.00 66 1014.0
20260905171033 91 54 1.7 5.2 0.00 0.00 0.00 69 1014.0
20260905170533 91 59 1.7 5.2 0.00 0.00 0.00 67 1013.9
20260905170055 91 105 0.9 3.5 0.00 0.00 0.00 67 1013.9
20260905165535 91 53 0.9 3.5 0.00 0.00 0.00 67 1013.9
20260905165033 91 99 0.9 2.6 0.00 0.00 0.00 69 1014.1
20260905164555 91 126 1.7 4.3 0.00 0.00 0.00 66 1014.0
20260905164036 92 120 0.0 4.3 0.00 0.00 0.00 67 1014.2
20260905163536 92 145 0.9 2.6 0.00 0.00 0.00 69 1014.3
20260905163058 92 96 0.9 3.5 0.00 0.00 0.00 67 1014.4
20260905162534 92 107 1.7 3.5 0.00 0.00 0.00 72 1014.5
20260905162033 91 170 0.9 3.5 0.00 0.00 0.00 67 1014.5
20260905161559 91 62 0.9 3.5 0.00 0.00 0.00 68 1014.5
20260905161035 91 67 0.9 2.6 0.00 0.00 0.00 66 1014.6
20260905160535 91 0 0.9 3.5 0.00 0.00 0.00 68 1014.6
20260905160100 91 134 1.7 3.5 0.00 0.00 0.00 73 1014.7
20260905155536 91 34 1.7 3.5 0.00 0.00 0.00 69 1014.6
20260905155034 91 153 0.9 3.5 0.00 0.00 0.00 71 1014.7
20260905154552 90 53 0.9 3.5 0.00 0.00 0.00 70 1014.8
20260905154038 90 51 0.9 3.5 0.00 0.00 0.00 70 1014.7
20260905153535 90 110 0.9 3.5 0.00 0.00 0.00 72 1014.8
20260905153058 90 78 0.9 3.5 0.00 0.00 0.00 70 1014.8
20260905152534 90 298 0.0 3.5 0.00 0.00 0.00 71 1014.6
20260905152036 90 132 0.0 2.6 0.00 0.00 0.00 72 1014.6
20260905151556 89 179 0.9 2.6 0.00 0.00 0.00 71 1014.5
20260905151036 89 134 0.0 2.6 0.00 0.00 0.00 76 1014.5
20260905150533 88 0 0.9 5.2 0.00 0.00 0.00 73 1014.5
20260905150053 88 97 0.9 5.2 0.00 0.00 0.00 75 1014.6
20260905145537 88 69 1.7 5.2 0.00 0.00 0.00 74 1014.6
20260905145034 88 105 0.9 2.6 0.00 0.00 0.00 77 1014.7
20260905144559 88 49 1.7 3.5 0.00 0.00 0.00 74 1014.8
20260905144034 88 112 0.9 3.5 0.00 0.00 0.00 81 1014.7
20260905143535 87 62 0.9 2.6 0.00 0.00 0.00 79 1014.7
20260905143101 87 0 0.9 2.6 0.00 0.00 0.00 79 1014.7
20260905142540 86 111 0.0 2.6 0.00 0.00 0.00 80 1014.6
20260905142035 85 22 0.9 2.6 0.00 0.00 0.00 81 1014.6
20260905141554 84 130 0.9 2.6 0.00 0.00 0.00 83 1014.6
20260905141034 84 46 0.0 1.7 0.00 0.00 0.00 85 1014.6
20260905140533 83 130 0.0 1.7 0.00 0.00 0.00 84 1014.7
20260905135538 82 0 0.0 3.5 0.00 0.00 0.00 86 1014.7
20260905135034 81 9 0.9 3.5 0.00 0.00 0.00 87 1014.7
20260905134557 80 0 0.0 1.7 0.00 0.00 0.00 89 1014.9
20260905134035 80 0 0.0 0.9 0.00 0.00 0.00 90 1015.0
20260905133534 79 0 0.0 0.9 0.00 0.00 0.00 90 1015.0
20260905133058 78 0 0.0 0.9 0.00 0.00 0.00 92 1014.9
20260905132534 78 0 0.0 0.9 0.00 0.00 0.00 92 1014.9
20260905132036 77 0 0.0 0.9 0.00 0.00 0.00 93 1015.0
20260905131552 76 0 0.0 0.9 0.00 0.00 0.00 93 1015.1
20260905131033 76 0 0.0 0.9 0.00 0.00 0.00 94 1015.2
20260905130533 75 0 0.0 0.9 0.00 0.00 0.00 94 1015.2
20260905130055 75 0 0.0 1.7 0.00 0.00 0.00 95 1015.3
20260905125535 74 0 0.0 1.7 0.00 0.00 0.00 95 1015.3
20260905125034 74 0 0.0 1.7 0.00 0.00 0.00 95 1015.3
20260905124600 74 0 0.0 1.7 0.00 0.00 0.00 95 1015.2
20260905124034 73 0 0.0 0.9 0.00 0.00 0.00 95 1015.3
20260905123533 73 0 0.0 0.0 0.00 0.00 0.00 95 1015.2
20260905123048 73 0 0.0 0.0 0.00 0.00 0.00 95 1015.1
20260905122533 73 0 0.0 0.9 0.00 0.00 0.00 95 1015.1
20260905122033 72 0 0.0 1.7 0.00 0.00 0.00 95 1015.1
20260905121600 72 0 0.0 1.7 0.00 0.00 0.00 96 1015.1
20260905121034 72 124 0.0 0.9 0.00 0.00 0.00 95 1015.1
20260905120536 72 0 0.0 1.7 0.00 0.00 0.00 95 1015.1
20260905120109 71 0 0.0 1.7 0.00 0.00 0.00 96 1015.1
20260905115534 71 0 0.0 1.7 0.00 0.00 0.00 96 1015.0
20260905115033 71 0 0.0 1.7 0.00 0.00 0.00 96 1014.9
20260905114609 71 0 0.0 1.7 0.00 0.00 0.00 95 1014.9
20260905114034 71 0 0.0 1.7 0.00 0.00 0.00 95 1014.8
20260905113535 71 140 0.0 0.9 0.00 0.00 0.00 95 1014.7
20260905113100 71 0 0.0 0.9 0.00 0.00 0.00 95 1014.6
20260905112534 71 140 0.0 0.9 0.00 0.00 0.00 95 1014.5
20260905112034 71 0 0.0 0.9 0.00 0.00 0.00 95 1014.4
20260905111646 71 0 0.0 0.9 0.00 0.00 0.00 95 1014.2
20260905111033 71 140 0.0 0.9 0.00 0.00 0.00 95 1014.2
20260905110534 71 0 0.0 0.9 0.00 0.00 0.00 95 1014.2
20260905110056 72 0 0.0 0.0 0.00 0.00 0.00 95 1014.1
20260905105536 72 0 0.0 0.0 0.00 0.00 0.00 95 1014.1
20260905105034 72 0 0.0 0.9 0.00 0.00 0.00 95 1013.8
20260905104556 72 0 0.0 0.9 0.00 0.00 0.00 95 1013.8
20260905104033 72 0 0.0 0.9 0.00 0.00 0.00 95 1013.7
20260905103535 72 0 0.0 0.0 0.00 0.00 0.00 95 1013.7
20260905103103 72 0 0.0 0.0 0.00 0.00 0.00 95 1013.8
20260905102533 72 0 0.0 0.9 0.00 0.00 0.00 95 1013.7
20260905102037 72 0 0.0 0.9 0.00 0.00 0.00 95 1013.7
20260905101558 72 0 0.0 0.9 0.00 0.00 0.00 95 1013.6
20260905101033 72 0 0.0 1.7 0.00 0.00 0.00 95 1013.7
20260905100534 72 88 0.0 1.7 0.00 0.00 0.00 94 1013.5
20260905095534 72 0 0.0 0.9 0.00 0.00 0.00 94 1013.5
20260905095033 72 0 0.0 0.9 0.00 0.00 0.00 94 1013.5
20260905094551 72 0 0.0 1.7 0.00 0.00 0.00 94 1013.6
20260905094036 72 0 0.0 1.7 0.00 0.00 0.00 94 1013.6
20260905093535 73 0 0.0 1.7 0.00 0.00 0.00 94 1013.6
20260905093106 73 0 0.0 1.7 0.00 0.00 0.00 94 1013.6
20260905092534 73 0 0.0 1.7 0.00 0.00 0.00 94 1013.6
20260905092035 73 0 0.0 0.9 0.00 0.00 0.00 94 1013.7
20260905091559 73 0 0.0 0.9 0.00 0.00 0.00 94 1013.7
20260905091035 73 0 0.0 0.9 0.00 0.00 0.00 94 1013.7
20260905090537 73 0 0.0 0.9 0.00 0.00 0.00 94 1013.7
20260905090057 73 0 0.0 0.9 0.00 0.00 0.00 94 1013.8
20260905085534 73 0 0.0 0.9 0.00 0.00 0.00 94 1013.8
20260905085035 73 0 0.0 0.9 0.00 0.00 0.00 94 1013.9
20260905084558 73 0 0.0 0.9 0.00 0.00 0.00 94 1013.8
20260905084037 73 0 0.0 0.9 0.00 0.00 0.00 94 1014.0
20260905083535 73 0 0.0 0.9 0.00 0.00 0.00 94 1014.0
20260905083050 73 0 0.0 0.9 0.00 0.00 0.00 94 1014.1
20260905082534 73 0 0.0 1.7 0.00 0.00 0.00 94 1014.2
20260905082035 73 0 0.0 1.7 0.00 0.00 0.00 95 1014.2
20260905081556 73 0 0.0 1.7 0.00 0.00 0.00 95 1014.2
20260905081035 73 0 0.0 1.7 0.00 0.00 0.00 95 1014.3
20260905080535 73 274 0.0 1.7 0.00 0.00 0.00 94 1014.3
20260905080056 73 0 0.0 1.7 0.00 0.00 0.00 95 1014.3
20260905075535 73 274 0.0 1.7 0.00 0.00 0.00 95 1014.3
20260905075034 73 0 0.0 0.9 0.00 0.00 0.00 94 1014.4
20260905074556 73 0 0.0 0.0 0.00 0.00 0.00 94 1014.4
20260905074035 73 0 0.0 1.7 0.00 0.00 0.00 94 1014.4
20260905073535 73 0 0.0 2.6 0.00 0.00 0.00 94 1014.4
20260905073049 73 274 0.0 2.6 0.00 0.00 0.00 94 1014.4
20260905072534 73 267 0.9 2.6 0.00 0.00 0.00 94 1014.5
20260905072034 74 258 0.9 1.7 0.00 0.00 0.00 94 1014.6
20260905071556 74 0 0.0 1.7 0.00 0.00 0.00 94 1014.7
20260905071034 74 273 0.0 1.7 0.00 0.00 0.00 94 1014.7
20260905070536 74 273 0.0 1.7 0.00 0.00 0.00 94 1014.8
20260905065538 74 0 0.0 0.9 0.00 0.00 0.00 94 1014.8
20260905065034 74 202 0.0 0.9 0.00 0.00 0.00 95 1014.9
20260905064611 74 0 0.0 0.9 0.00 0.00 0.00 94 1015.0
20260905064034 74 0 0.0 0.9 0.00 0.00 0.00 94 1015.0
20260905063533 74 0 0.0 0.9 0.00 0.00 0.00 94 1015.1
20260905063052 74 0 0.0 0.9 0.00 0.00 0.00 94 1015.0
20260905062532 74 0 0.0 0.9 0.00 0.00 0.00 94 1015.0
20260905062033 74 0 0.0 0.9 0.00 0.00 0.00 94 1015.0
20260905061557 74 0 0.0 0.9 0.00 0.00 0.00 94 1015.2
20260905061034 74 0 0.0 0.9 0.00 0.00 0.00 94 1015.3
20260905060533 74 0 0.0 0.9 0.00 0.00 0.00 94 1015.3
20260905060053 74 0 0.0 0.9 0.00 0.00 0.00 94 1015.4
20260905055533 74 0 0.0 0.9 0.00 0.00 0.00 94 1015.4
20260905055034 74 0 0.0 0.9 0.00 0.00 0.00 94 1015.4
20260905054554 74 0 0.0 0.9 0.00 0.00 0.00 94 1015.4
20260905054037 74 0 0.0 0.0 0.00 0.00 0.00 94 1015.5
20260905053533 74 0 0.0 0.0 0.00 0.00 0.00 94 1015.5
20260905053055 74 0 0.0 0.0 0.00 0.00 0.00 94 1015.5
20260905052535 75 0 0.0 0.9 0.00 0.00 0.00 94 1015.6
20260905052033 75 0 0.0 0.9 0.00 0.00 0.00 94 1015.6
20260905051553 75 0 0.0 0.9 0.00 0.00 0.00 94 1015.5
20260905051036 75 0 0.0 0.9 0.00 0.00 0.00 93 1015.5
20260905050533 75 0 0.0 0.0 0.00 0.00 0.00 93 1015.4
20260905050100 75 0 0.0 0.0 0.00 0.00 0.00 93 1015.4
20260905045534 75 0 0.0 0.0 0.00 0.00 0.00 93 1015.5
20260905045034 75 0 0.0 0.0 0.00 0.00 0.00 93 1015.5
20260905044558 75 0 0.0 0.0 0.00 0.00 0.00 93 1015.4
20260905044034 75 0 0.0 0.0 0.00 0.00 0.00 93 1015.4
20260905043534 76 0 0.0 0.0 0.00 0.00 0.00 92 1015.3
20260905043056 76 0 0.0 0.0 0.00 0.00 0.00 92 1015.4
20260905042533 76 0 0.0 0.0 0.00 0.00 0.00 92 1015.4
20260905042033 76 0 0.0 0.0 0.00 0.00 0.00 92 1015.4
20260905041558 76 0 0.0 0.0 0.00 0.00 0.00 92 1015.3
20260905041033 76 0 0.0 0.0 0.00 0.00 0.00 92 1015.4
20260905040534 76 0 0.0 0.0 0.00 0.00 0.00 92 1015.3
20260905040056 76 0 0.0 0.0 0.00 0.00 0.00 91 1015.4
20260905035533 76 0 0.0 0.0 0.00 0.00 0.00 91 1015.2
20260905035033 76 0 0.0 0.0 0.00 0.00 0.00 91 1015.2
20260905034601 76 0 0.0 0.0 0.00 0.00 0.00 91 1015.3
20260905034035 77 0 0.0 0.0 0.00 0.00 0.00 91 1015.4
20260905033534 77 0 0.0 0.0 0.00 0.00 0.00 91 1015.4
20260905033048 77 0 0.0 0.0 0.00 0.00 0.00 91 1015.5
20260905032533 77 0 0.0 0.0 0.00 0.00 0.00 91 1015.4